Time,TemperatureF,DewpointF,PressureIn,WindDirection,WindDirectionDegrees,WindSpeedMPH,WindSpeedGustMPH,Humidity,HourlyPrecipIn,Conditions,Clouds,dailyrainin,SoftwareType,DateUTC
2013-04-30 00:02:00,64.0,56.0,29.83,SE,138,0.0,0.0,75,0.00,,,0.00,,2013-04-30 04:02:00,
2013-04-30 00:12:00,64.0,56.0,29.83,SE,138,0.0,0.0,75,0.00,,,0.00,,2013-04-30 04:12:00,
2013-04-30 00:22:00,63.0,55.0,29.83,SE,136,0.0,0.0,75,0.00,,,0.00,,2013-04-30 04:22:00,
2013-04-30 00:32:00,63.0,55.0,29.84,SE,136,0.0,0.0,76,0.00,,,0.00,,2013-04-30 04:32:00,
2013-04-30 00:42:00,63.0,55.0,29.84,SE,136,0.0,0.0,76,0.00,,,0.00,,2013-04-30 04:42:00,
2013-04-30 00:52:00,62.0,55.0,29.84,SE,136,0.0,0.0,77,0.00,,,0.00,,2013-04-30 04:52:00,
2013-04-30 01:02:00,62.0,55.0,29.84,SE,136,0.0,0.0,78,0.00,,,0.00,,2013-04-30 05:02:00,
2013-04-30 01:12:00,62.0,55.0,29.84,SE,136,0.0,0.0,78,0.00,,,0.00,,2013-04-30 05:12:00,
2013-04-30 01:22:00,61.0,55.0,29.84,SE,136,0.0,0.0,80,0.00,,,0.00,,2013-04-30 05:22:00,
2013-04-30 01:31:00,61.0,54.0,29.84,SE,136,0.0,0.0,79,0.00,,,0.00,,2013-04-30 05:31:00,
2013-04-30 01:42:00,61.0,54.0,29.84,SE,136,0.0,0.0,79,0.00,,,0.00,,2013-04-30 05:42:00,
2013-04-30 01:51:00,61.0,54.0,29.83,SSW,202,3.0,3.0,79,0.00,,,0.00,,2013-04-30 05:51:00,
2013-04-30 02:02:00,61.0,54.0,29.84,SSW,195,0.0,2.0,77,0.00,,,0.00,,2013-04-30 06:02:00,
2013-04-30 02:12:00,62.0,54.0,29.84,SSW,196,2.0,4.0,76,0.00,,,0.00,,2013-04-30 06:12:00,
2013-04-30 02:21:00,62.0,54.0,29.84,SSW,196,2.0,4.0,76,0.00,,,0.00,,2013-04-30 06:21:00,
2013-04-30 02:32:00,62.0,55.0,29.84,SW,227,0.0,0.0,77,0.00,,,0.00,,2013-04-30 06:32:00,
2013-04-30 02:41:00,62.0,55.0,29.84,SW,227,0.0,0.0,77,0.00,,,0.00,,2013-04-30 06:41:00,
2013-04-30 02:52:00,61.0,54.0,29.85,SW,221,1.0,1.0,78,0.00,,,0.00,,2013-04-30 06:52:00,
2013-04-30 03:01:00,61.0,54.0,29.85,SW,221,0.0,0.0,78,0.00,,,0.00,,2013-04-30 07:01:00,
2013-04-30 03:11:00,61.0,54.0,29.85,SW,221,0.0,0.0,78,0.00,,,0.00,,2013-04-30 07:11:00,
2013-04-30 03:21:00,61.0,54.0,29.85,SW,221,0.0,0.0,79,0.00,,,0.00,,2013-04-30 07:21:00,
2013-04-30 03:32:00,59.0,53.0,29.85,SW,221,0.0,0.0,81,0.00,,,0.00,,2013-04-30 07:32:00,
2013-04-30 03:42:00,59.0,53.0,29.85,SW,221,0.0,0.0,81,0.00,,,0.00,,2013-04-30 07:42:00,
2013-04-30 03:52:00,59.0,54.0,29.86,SW,221,0.0,0.0,83,0.00,,,0.00,,2013-04-30 07:52:00,
2013-04-30 04:02:00,58.0,54.0,29.86,SW,221,0.0,0.0,86,0.00,,,0.00,,2013-04-30 08:02:00,
2013-04-30 04:11:00,58.0,54.0,29.86,SW,221,0.0,0.0,86,0.00,,,0.00,,2013-04-30 08:11:00,
2013-04-30 04:22:00,58.0,54.0,29.86,SW,221,0.0,0.0,86,0.00,,,0.00,,2013-04-30 08:22:00,
2013-04-30 04:32:00,59.0,54.0,29.86,ESE,111,0.0,2.0,84,0.00,,,0.00,,2013-04-30 08:32:00,
2013-04-30 04:42:00,59.0,54.0,29.86,ESE,111,0.0,2.0,84,0.00,,,0.00,,2013-04-30 08:42:00,
2013-04-30 04:52:00,59.0,54.0,29.86,ESE,111,0.0,2.0,84,0.00,,,0.00,,2013-04-30 08:52:00,
2013-04-30 05:02:00,59.0,54.0,29.86,ESE,111,0.0,2.0,84,0.00,,,0.00,,2013-04-30 09:02:00,
2013-04-30 05:11:00,59.0,54.0,29.86,ESE,111,0.0,2.0,84,0.00,,,0.00,,2013-04-30 09:11:00,
2013-04-30 05:22:00,58.0,53.0,29.85,East,94,0.0,2.0,84,0.00,,,0.00,,2013-04-30 09:22:00,
2013-04-30 05:33:00,58.0,54.0,29.86,SE,140,1.0,4.0,85,0.00,,,0.00,,2013-04-30 09:33:00,
2013-04-30 05:43:00,58.0,54.0,29.86,SE,140,1.0,4.0,85,0.00,,,0.00,,2013-04-30 09:43:00,
2013-04-30 05:52:00,58.0,54.0,29.85,SE,135,0.0,3.0,86,0.00,,,0.00,,2013-04-30 09:52:00,
2013-04-30 06:03:00,58.0,54.0,29.85,SE,132,1.0,4.0,86,0.00,,,0.00,,2013-04-30 10:03:00,
2013-04-30 06:12:00,58.0,54.0,29.85,SE,132,1.0,4.0,86,0.00,,,0.00,,2013-04-30 10:12:00,
2013-04-30 06:22:00,57.0,53.0,29.84,SSE,148,0.0,3.0,87,0.00,,,0.00,,2013-04-30 10:22:00,
2013-04-30 06:32:00,57.0,53.0,29.85,ENE,74,4.0,5.0,87,0.00,,,0.00,,2013-04-30 10:32:00,
2013-04-30 06:41:00,57.0,53.0,29.85,ENE,74,4.0,5.0,87,0.00,,,0.00,,2013-04-30 10:41:00,
2013-04-30 06:52:00,56.0,52.0,29.85,SSE,161,1.0,2.0,87,0.00,,,0.00,,2013-04-30 10:52:00,
2013-04-30 07:02:00,56.0,52.0,29.85,SSE,168,1.0,5.0,88,0.00,,,0.00,,2013-04-30 11:02:00,
2013-04-30 07:11:00,56.0,52.0,29.85,SSE,168,1.0,5.0,88,0.00,,,0.00,,2013-04-30 11:11:00,
2013-04-30 07:21:00,56.0,53.0,29.88,SSW,196,1.0,3.0,89,0.00,,,0.00,,2013-04-30 11:21:00,
2013-04-30 07:32:00,57.0,54.0,29.87,SSW,199,0.0,4.0,89,0.00,,,0.00,,2013-04-30 11:32:00,
2013-04-30 07:42:00,57.0,54.0,29.87,SSW,199,0.0,4.0,89,0.00,,,0.00,,2013-04-30 11:42:00,
2013-04-30 07:52:00,57.0,53.0,29.88,South,169,0.0,2.0,88,0.00,,,0.00,,2013-04-30 11:52:00,
2013-04-30 08:01:00,58.0,54.0,29.88,SSE,153,0.0,5.0,87,0.00,,,0.00,,2013-04-30 12:01:00,
2013-04-30 08:11:00,58.0,54.0,29.88,SSE,153,0.0,5.0,87,0.00,,,0.00,,2013-04-30 12:11:00,
2013-04-30 08:21:00,58.0,54.0,29.89,SSE,152,2.0,5.0,87,0.00,,,0.00,,2013-04-30 12:21:00,
2013-04-30 08:31:00,58.0,54.0,29.91,SW,223,1.0,4.0,86,0.00,,,0.00,,2013-04-30 12:31:00,
2013-04-30 08:41:00,58.0,54.0,29.91,SW,223,1.0,4.0,86,0.00,,,0.00,,2013-04-30 12:41:00,
2013-04-30 08:51:00,58.0,54.0,29.91,WSW,242,2.0,6.0,86,0.00,,,0.00,,2013-04-30 12:51:00,
2013-04-30 09:01:00,58.0,54.0,29.89,SSE,163,2.0,5.0,87,0.00,,,0.00,,2013-04-30 13:01:00,
2013-04-30 09:11:00,58.0,54.0,29.89,SSE,163,2.0,5.0,87,0.00,,,0.00,,2013-04-30 13:11:00,
2013-04-30 09:21:00,58.0,54.0,29.88,SSE,163,0.0,3.0,88,0.00,,,0.00,,2013-04-30 13:21:00,
2013-04-30 09:31:00,58.0,54.0,29.85,South,178,9.0,15.0,88,0.01,,,0.01,,2013-04-30 13:31:00,
2013-04-30 09:41:00,58.0,54.0,29.85,South,178,9.0,15.0,88,0.01,,,0.01,,2013-04-30 13:41:00,
2013-04-30 09:51:00,58.0,54.0,29.86,SSE,156,4.0,10.0,88,0.01,,,0.01,,2013-04-30 13:51:00,
2013-04-30 10:02:00,58.0,54.0,29.91,West,270,0.0,6.0,88,0.04,,,0.04,,2013-04-30 14:02:00,
2013-04-30 10:11:00,58.0,55.0,29.88,SE,129,0.0,4.0,89,0.04,,,0.04,,2013-04-30 14:11:00,
2013-04-30 10:21:00,58.0,55.0,29.88,SE,129,0.0,4.0,89,0.04,,,0.04,,2013-04-30 14:21:00,
2013-04-30 10:31:00,57.0,54.0,29.88,South,189,2.0,6.0,91,0.07,,,0.09,,2013-04-30 14:31:00,
2013-04-30 10:41:00,57.0,54.0,29.88,South,189,2.0,6.0,91,0.07,,,0.09,,2013-04-30 14:41:00,
2013-04-30 10:52:00,57.0,55.0,29.95,NW,307,0.0,5.0,92,0.09,,,0.10,,2013-04-30 14:52:00,
2013-04-30 11:02:00,57.0,55.0,29.91,West,272,2.0,5.0,93,0.11,,,0.16,,2013-04-30 15:02:00,
2013-04-30 11:11:00,57.0,55.0,29.91,West,272,2.0,5.0,93,0.11,,,0.16,,2013-04-30 15:11:00,
2013-04-30 11:21:00,57.0,55.0,29.92,West,261,0.0,0.0,93,0.09,,,0.17,,2013-04-30 15:21:00,
2013-04-30 11:32:00,57.0,55.0,29.92,WSW,242,0.0,0.0,94,0.06,,,0.17,,2013-04-30 15:32:00,
2013-04-30 11:42:00,57.0,55.0,29.92,WSW,242,0.0,0.0,94,0.06,,,0.17,,2013-04-30 15:42:00,
2013-04-30 11:53:00,57.0,55.0,29.95,WSW,248,0.0,2.0,94,0.03,,,0.17,,2013-04-30 15:53:00,
2013-04-30 12:02:00,57.0,55.0,29.91,SSE,163,0.0,3.0,94,0.04,,,0.20,,2013-04-30 16:02:00,
2013-04-30 12:12:00,57.0,55.0,29.91,SSE,163,0.0,3.0,94,0.04,,,0.20,,2013-04-30 16:12:00,
2013-04-30 12:23:00,57.0,55.0,29.94,WNW,287,0.0,3.0,94,0.04,,,0.20,,2013-04-30 16:23:00,
2013-04-30 12:33:00,59.0,57.0,29.92,East,82,0.0,4.0,94,0.05,,,0.23,,2013-04-30 16:33:00,
2013-04-30 12:42:00,59.0,57.0,29.92,East,82,0.0,4.0,94,0.05,,,0.23,,2013-04-30 16:42:00,
2013-04-30 12:52:00,58.0,56.0,29.91,SE,133,6.0,7.0,94,0.05,,,0.23,,2013-04-30 16:52:00,
2013-04-30 13:02:00,58.0,56.0,29.89,SSE,157,3.0,5.0,94,0.04,,,0.24,,2013-04-30 17:02:00,
2013-04-30 13:12:00,58.0,56.0,29.89,SSE,157,3.0,5.0,94,0.04,,,0.24,,2013-04-30 17:12:00,
2013-04-30 13:22:00,58.0,56.0,29.90,South,178,0.0,8.0,93,0.04,,,0.25,,2013-04-30 17:22:00,
2013-04-30 13:32:00,59.0,57.0,29.89,SSE,155,4.0,10.0,92,0.02,,,0.25,,2013-04-30 17:32:00,
2013-04-30 13:42:00,59.0,57.0,29.89,SSE,155,4.0,10.0,92,0.02,,,0.25,,2013-04-30 17:42:00,
2013-04-30 13:53:00,59.0,57.0,29.89,SSE,155,4.0,10.0,92,0.02,,,0.25,,2013-04-30 17:53:00,
2013-04-30 14:01:00,60.0,57.0,29.88,SW,219,4.0,7.0,90,0.01,,,0.25,,2013-04-30 18:01:00,
2013-04-30 14:11:00,60.0,57.0,29.88,SW,219,4.0,7.0,90,0.01,,,0.25,,2013-04-30 18:11:00,
2013-04-30 14:22:00,63.0,59.0,29.88,SE,144,2.0,9.0,87,0.00,,,0.25,,2013-04-30 18:22:00,
2013-04-30 14:32:00,65.0,59.0,29.88,SW,227,4.0,7.0,82,0.00,,,0.25,,2013-04-30 18:32:00,
2013-04-30 14:42:00,65.0,59.0,29.88,SW,227,4.0,7.0,82,0.00,,,0.25,,2013-04-30 18:42:00,
2013-04-30 14:52:00,66.0,59.0,29.88,SW,227,9.0,9.0,79,0.00,,,0.25,,2013-04-30 18:52:00,
2013-04-30 15:01:00,67.0,60.0,29.88,South,172,2.0,10.0,77,0.00,,,0.25,,2013-04-30 19:01:00,
2013-04-30 15:11:00,67.0,60.0,29.88,South,172,2.0,10.0,77,0.00,,,0.25,,2013-04-30 19:11:00,
2013-04-30 15:22:00,68.0,59.0,29.88,SSE,157,4.0,13.0,74,0.00,,,0.25,,2013-04-30 19:22:00,
2013-04-30 15:32:00,68.0,59.0,29.88,South,190,4.0,11.0,72,0.00,,,0.25,,2013-04-30 19:32:00,
2013-04-30 15:42:00,68.0,59.0,29.88,South,190,4.0,11.0,72,0.00,,,0.25,,2013-04-30 19:42:00,
2013-04-30 15:52:00,70.0,60.0,29.87,SSW,206,5.0,10.0,70,0.00,,,0.25,,2013-04-30 19:52:00,
2013-04-30 16:02:00,71.0,60.0,29.87,ESE,118,14.0,14.0,68,0.00,,,0.25,,2013-04-30 20:02:00,
2013-04-30 16:11:00,71.0,60.0,29.87,ESE,118,14.0,14.0,68,0.00,,,0.25,,2013-04-30 20:11:00,
2013-04-30 16:21:00,71.0,59.0,29.86,South,179,2.0,7.0,67,0.00,,,0.25,,2013-04-30 20:21:00,
2013-04-30 16:32:00,71.0,59.0,29.86,South,179,2.0,7.0,67,0.00,,,0.25,,2013-04-30 20:32:00,
2013-04-30 16:42:00,71.0,59.0,29.86,South,179,2.0,7.0,67,0.00,,,0.25,,2013-04-30 20:42:00,
2013-04-30 16:52:00,72.0,59.0,29.85,SSW,198,10.0,14.0,64,0.00,,,0.25,,2013-04-30 20:52:00,
2013-04-30 17:02:00,72.0,60.0,29.85,South,179,9.0,13.0,65,0.00,,,0.25,,2013-04-30 21:02:00,
2013-04-30 17:11:00,73.0,61.0,29.85,South,174,4.0,12.0,65,0.00,,,0.25,,2013-04-30 21:11:00,
2013-04-30 17:22:00,73.0,61.0,29.85,South,174,4.0,12.0,65,0.00,,,0.25,,2013-04-30 21:22:00,
2013-04-30 17:32:00,73.0,60.0,29.85,South,186,5.0,10.0,64,0.00,,,0.25,,2013-04-30 21:32:00,
2013-04-30 17:42:00,73.0,60.0,29.85,South,186,5.0,10.0,64,0.00,,,0.25,,2013-04-30 21:42:00,
2013-04-30 17:53:00,73.0,60.0,29.85,SSE,163,7.0,11.0,64,0.00,,,0.25,,2013-04-30 21:53:00,
2013-04-30 18:02:00,73.0,60.0,29.85,ESE,117,5.0,10.0,63,0.00,,,0.25,,2013-04-30 22:02:00,
2013-04-30 18:12:00,73.0,60.0,29.85,ESE,117,5.0,10.0,63,0.00,,,0.25,,2013-04-30 22:12:00,
2013-04-30 18:23:00,74.0,61.0,29.86,South,176,4.0,11.0,63,0.00,,,0.25,,2013-04-30 22:23:00,
2013-04-30 18:32:00,74.0,60.0,29.86,WSW,245,4.0,10.0,62,0.00,,,0.25,,2013-04-30 22:32:00,
2013-04-30 18:42:00,74.0,60.0,29.86,WSW,245,4.0,10.0,62,0.00,,,0.25,,2013-04-30 22:42:00,
2013-04-30 18:53:00,74.0,60.0,29.86,SSW,213,8.0,18.0,61,0.00,,,0.25,,2013-04-30 22:53:00,
2013-04-30 19:02:00,74.0,60.0,29.86,SW,215,5.0,9.0,62,0.00,,,0.25,,2013-04-30 23:02:00,
2013-04-30 19:12:00,74.0,60.0,29.86,SW,215,5.0,9.0,62,0.00,,,0.25,,2013-04-30 23:12:00,
2013-04-30 19:22:00,73.0,59.0,29.87,SSW,205,4.0,11.0,62,0.00,,,0.25,,2013-04-30 23:22:00,
2013-04-30 19:32:00,73.0,60.0,29.87,South,178,0.0,10.0,63,0.00,,,0.25,,2013-04-30 23:32:00,
2013-04-30 19:42:00,73.0,60.0,29.87,South,178,0.0,10.0,63,0.00,,,0.25,,2013-04-30 23:42:00,
2013-04-30 19:52:00,73.0,60.0,29.88,SSW,210,6.0,8.0,64,0.00,,,0.25,,2013-04-30 23:52:00,
2013-04-30 20:02:00,73.0,60.0,29.88,SSW,208,0.0,9.0,64,0.00,,,0.25,,2013-05-01 00:02:00,
2013-04-30 20:11:00,73.0,60.0,29.88,SSW,208,0.0,9.0,64,0.00,,,0.25,,2013-05-01 00:11:00,
2013-04-30 20:22:00,72.0,59.0,29.89,SSW,201,4.0,10.0,64,0.00,,,0.25,,2013-05-01 00:22:00,
2013-04-30 20:32:00,72.0,60.0,29.89,SW,219,0.0,8.0,65,0.00,,,0.25,,2013-05-01 00:32:00,
2013-04-30 20:42:00,72.0,60.0,29.89,SW,219,0.0,8.0,65,0.00,,,0.25,,2013-05-01 00:42:00,
2013-04-30 20:52:00,71.0,59.0,29.90,South,175,0.0,6.0,66,0.00,,,0.25,,2013-05-01 00:52:00,
2013-04-30 21:01:00,70.0,59.0,29.90,WSW,251,0.0,6.0,67,0.00,,,0.25,,2013-05-01 01:01:00,
2013-04-30 21:11:00,70.0,59.0,29.90,WSW,251,0.0,6.0,67,0.00,,,0.25,,2013-05-01 01:11:00,
2013-04-30 21:21:00,70.0,59.0,29.91,South,185,1.0,4.0,67,0.00,,,0.25,,2013-05-01 01:21:00,
2013-04-30 21:32:00,69.0,58.0,29.91,SSE,150,0.0,4.0,68,0.00,,,0.25,,2013-05-01 01:32:00,
2013-04-30 21:42:00,69.0,58.0,29.91,SSE,150,0.0,4.0,68,0.00,,,0.25,,2013-05-01 01:42:00,
2013-04-30 21:52:00,69.0,59.0,29.92,South,173,1.0,3.0,70,0.00,,,0.25,,2013-05-01 01:52:00,
2013-04-30 22:02:00,68.0,58.0,29.93,SSE,155,0.0,3.0,70,0.00,,,0.25,,2013-05-01 02:02:00,
2013-04-30 22:11:00,68.0,58.0,29.93,SSE,155,0.0,3.0,70,0.00,,,0.25,,2013-05-01 02:11:00,
2013-04-30 22:21:00,67.0,57.0,29.93,South,173,2.0,3.0,71,0.00,,,0.25,,2013-05-01 02:21:00,
2013-04-30 22:32:00,67.0,58.0,29.94,ESE,123,0.0,2.0,72,0.00,,,0.25,,2013-05-01 02:32:00,
2013-04-30 22:42:00,67.0,58.0,29.94,ESE,123,0.0,2.0,72,0.00,,,0.25,,2013-05-01 02:42:00,
2013-04-30 22:52:00,66.0,57.0,29.94,South,176,0.0,0.0,73,0.00,,,0.25,,2013-05-01 02:52:00,
2013-04-30 23:02:00,66.0,57.0,29.94,South,176,0.0,0.0,73,0.00,,,0.25,,2013-05-01 03:02:00,
2013-04-30 23:11:00,66.0,57.0,29.94,South,176,0.0,0.0,73,0.00,,,0.25,,2013-05-01 03:11:00,
2013-04-30 23:21:00,65.0,57.0,29.94,South,180,1.0,3.0,75,0.00,,,0.25,,2013-05-01 03:21:00,
2013-04-30 23:33:00,65.0,57.0,29.95,South,175,0.0,6.0,76,0.00,,,0.25,,2013-05-01 03:33:00,
2013-04-30 23:43:00,65.0,57.0,29.95,South,175,0.0,6.0,76,0.00,,,0.25,,2013-05-01 03:43:00,
2013-04-30 23:53:00,65.0,57.0,29.95,ESE,123,0.0,5.0,76,0.00,,,0.25,,2013-05-01 03:53:00,